#timestamp,LO_Frequency,Hit,StdDev 
1618657215.6,286046999.3,N
1618657235.5,286047000.1,N
1618657255.3,286047002.6,N
1618657275.1,286047000.1,N
1618657295.9,286046998.9,N
1618657315.7,286046997.1,N
1618657335.5,286046996.5,N
1618657355.4,286046999.5,N
1618657375.2,286047000.4,N
1618657395.0,286047001.2,N
1618657396.0,286047001.2,N
1618657415.8,286046999.1,N
1618657435.6,286046999.0,N
1618657455.5,286047000.3,N
1618657475.3,286047003.2,N
1618657495.1,286047001.6,N
1618657515.9,286047002.5,N
1618657535.7,286047002.4,N
1618657555.5,286047001.1,N
1618657575.4,286046998.3,N
1618657595.2,286046996.5,N
1618657615.1,286046999.5,N
1618657616.0,286046999.5,N
1618657635.8,286046999.1,N
1618657655.6,286046999.0,N
1618657675.5,286046996.7,N
1618657695.3,286046997.1,N
1618657715.1,286046996.5,N
1618657735.9,286046999.1,N
1618657755.7,286047002.7,N
1618657775.6,286047001.7,N
1618657795.4,286047000.1,N
1618657815.2,286047001.3,N
1618657835.1,286047003.4,N
1618657836.0,286047003.4,N
1618657855.8,286047003.2,N
1618657875.7,286047003.5,N
1618657895.5,286047003.3,N
1618657915.3,286047003.5,N
1618657935.2,286047004.4,N
1618657955.0,286046999.8,N
1618657955.9,286046999.8,N
1618657975.7,286046998.1,N
1618657995.6,286047000.0,N
1618658015.4,286047004.2,N
1618658035.3,286047001.8,N
1618658055.1,286047002.1,N
1618658075.8,286047006.0,N
1618658095.7,286047006.0,N
1618658115.5,286047003.2,N
1618658135.4,286047003.6,N
1618658155.2,286047003.5,N
1618658175.0,286047003.1,N
1618658175.9,286047003.1,N
1618658195.8,286047005.7,N
1618658215.6,286047004.5,N
1618658235.4,286047005.3,N
1618658255.3,286047001.9,N
1618658275.1,286046999.8,N
1618658295.9,286047001.9,N
1618658315.7,286047000.2,N
1618658335.5,286047002.3,N
1618658355.4,286047004.4,N
1618658375.2,286046998.3,N
1618658395.1,286046996.6,N
1618658396.0,286046996.6,N
1618658415.9,286046998.8,N
1618658435.7,286046999.3,N
1618658455.5,286046996.6,N
1618658475.4,286046999.1,N
1618658495.2,286046998.9,N
1618658515.1,286046998.0,N
1618658516.0,286046998.0,N
1618658535.8,286046997.2,N
1618658555.6,286046999.6,N
1618658575.5,286046998.9,N
1618658595.3,286047000.7,N
1618658615.1,286047001.0,N
1618658635.9,286047000.1,N
1618658655.7,286046998.5,N
1618658675.6,286046998.5,N
1618658695.4,286046996.7,N
1618658715.2,286046996.6,N
1618658735.1,286046999.3,N
1618658736.0,286046999.3,N
1618658755.8,286047000.8,N
1618658775.7,286047000.8,N
1618658795.5,286046998.4,N
1618658815.3,286047001.4,N
1618658835.2,286047002.0,N
1618658855.0,286047000.4,N
1618658855.9,286047000.4,N
1618658875.8,286046999.9,N
1618658895.6,286047001.2,N
1618658915.4,286047001.2,N
1618658935.3,286046999.1,N
1618658955.1,286046997.5,N
1618658975.8,286046996.1,N
1618658995.7,286046995.0,Y
1618659015.5,286046996.6,P
1618659035.4,286046998.3,N
1618659055.2,286047002.3,N
1618659075.0,286047001.2,N
1618659075.9,286047001.2,N
1618659095.8,286046999.7,N
1618659115.6,286047005.6,Y
1618659135.4,286047004.0,P
1618659155.3,286047004.9,N
1618659175.1,286047004.9,N
1618659195.9,286047004.7,N
1618659215.7,286047008.0,Y
1618659235.5,286047002.4,P
1618659255.4,286046999.8,N
1618659275.2,286046998.4,N
1618659295.0,286046997.5,N
1618659296.0,286046997.5,N
1618659315.8,286046997.7,N
1618659335.6,286046994.9,N
1618659355.5,286046995.1,N
1618659375.3,286046998.0,N
1618659395.1,286046997.9,N
1618659415.9,286046997.2,N
1618659435.7,286046999.6,N
1618659455.5,286046998.5,N
1618659475.4,286047002.2,N
1618659495.2,286047002.5,N
1618659515.1,286047000.8,N
1618659516.0,286047000.8,N
1618659535.8,286047000.5,N
1618659555.6,286047000.4,N
1618659575.5,286047000.5,N
1618659595.3,286046998.3,N
1618659615.1,286046999.2,N
1618659635.9,286046999.4,N
1618659655.7,286047002.8,N
1618659675.6,286047000.1,N
1618659695.4,286046996.6,N
1618659715.2,286046995.0,N
1618659735.1,286046995.6,N
1618659736.0,286046995.6,N
1618659755.8,286046995.0,N
1618659775.7,286046997.0,N
1618659795.5,286046999.0,N
1618659815.3,286046998.8,N
1618659835.2,286046998.8,N
1618659855.9,286046996.6,N
1618659875.7,286046998.5,N
1618659895.6,286046999.4,N
1618659915.4,286046996.6,N
1618659935.2,286046997.2,N
1618659955.1,286046997.4,N
1618659956.0,286046997.4,N
1618659975.8,286046997.2,N
1618659995.7,286047001.0,N
1618660015.5,286047002.3,N
1618660035.3,286046998.5,N
1618660055.2,286046998.7,N
1618660075.0,286046999.3,N
1618660075.9,286046999.3,N
1618660095.8,286047000.2,N
1618660115.6,286046998.3,N
1618660135.4,286046998.8,N
1618660155.3,286046997.0,N
1618660175.1,286046995.6,N
1618660195.8,286046995.1,N
1618660215.7,286046996.5,N
1618660235.5,286046996.5,N
1618660255.4,286046998.7,N
1618660275.2,286047001.1,N
1618660295.0,286046997.4,N
1618660295.9,286046997.4,N
1618660315.8,286046998.5,N
1618660335.6,286047001.0,N
1618660355.4,286046996.8,N
1618660375.3,286046994.5,Y
1618660395.1,286046993.3,P
1618660415.9,286046992.1,P
1618660435.7,286046992.5,N
1618660455.5,286046990.5,Y
1618660475.4,286046996.8,P
1618660495.2,286046997.6,N
1618660515.1,286046995.3,P
1618660516.0,286046995.3,Y
1618660535.8,286047001.1,P
1618660555.6,286046999.8,N
1618660575.5,286047004.1,N
1618660595.3,286047004.7,N
1618660615.1,286047005.0,N
1618660635.9,286047003.1,N
1618660655.7,286047001.8,N
1618660675.6,286047002.7,N
1618660695.4,286047002.7,N
1618660715.2,286046999.7,N
1618660735.1,286047000.2,N
1618660736.0,286047000.2,N
1618660755.8,286047000.4,N
1618660775.6,286047001.2,N
1618660795.5,286047000.4,N
